Probability
0 0 0 0 0 0 0 0 0 0 0 0 0 0 0 0 0 0 0 0 0 0 0 0 0 0 0 0 0 0 0 0 0 0 0 0 0 0 0 0 0 0 0 0
0 0 0 0 0 0 0 0 0 0 0 0 0 0 0 0 0 0 0 0 0 0 0 0 0 0 0 0 0 0 0 0 0 0 0 0 0 0 0 0 0 0 0 0
0 0 0 0 0 0 0 0 0 0 0 0 0 0 0 0 0 0 0 0 0 0 0 0 0 0 0 0 0 0 0 0 0 0 0 0 0 0 0 0 0 0 0 0
0 0 0 0 0 0 0 0 0 0 0 0 0 0 0 0 0 0 0 0 0 0 0 0 0 0 0 0 0 0 0 0 0 0 0 0 0 0 0 0 0 0 0 0
0 0 0 0 0 0 0 0 0 0 0 0 0 0 0 0 0 0 0 0 0 0 0 0 0 0 0 0 0 0 0 0 0 0 0 0 0 0 0 0 0 0 0 0
0 0 0 0 0 0 0 0 0 0 0 0 0 0 0 0 0 0 0 0 0 0 0 0 0 0 0 0 0 0 0 0 0 0 0 0 0 0 0 0 0 0 0 0
0 0 0 0 0 0 0 0 0 0 0 0 0 0 0 0 0 0 0 0 0 0 0 0 0 0 0 0 0 0 0 0 0 0 0 0 0 0 0 0 0 0 0 0
0 0 0 0 0 0 0 0 0 0 0 0 0 0 0 0 0 0 0 0 0 0 0 0 0 0 0 0 0 0 0 0 0 0 0 0 0 0 0 0 0 0 0 0
0 0 0 0 0 0 0 0 0 0 0 0 0 0 0 0 0 0 0 0 0 0 0 0 0 0 0 0 0 0 0 0 0 0 0 0 0 0 0 0 0 0 0 0
0 0 0 0 0 0 0 0 0 0 0 0 0 0 0 0 0 0 0 0 0 0 0 0 0 0 0 0 0 0 0 0 0 0 0 0 0 0 0 0 0 0 0 0
0 0 0 0 0 0 0 0 0 0 0 0 0 0 0 0 0 0 0 0 0 0 0 0 0 0 0 0 0 0 0 0 0 0 0 0 0 0 0 0 0 0 0 0
0 0 0 0 0 0 0 0 0 0 0 0 0 0 0 0 0 0 0 0 0 0 0 0 0 0 0 0 0 0 0 0 0 0 0 0 0 0 0 0 0 0 0 0
0 0 0 0 0 0 0 0 0 0 0 0 0 0 0 0 0 0 0 0 0 0 0 0 0 0 0 0 0 0 0 0 0 0 0 0 0 0 0 0 0 0 0 0
0 0 0 0 0 0 0 0 0 0 0 0 0 0 0 0 0 0 0 0 0 0 0 0 0 0 0 0 0 0 0 0 0 0 0 0 0 0 0 0 0 0 0 0
0 0 0 0 0 0 0 0 0 0 0 0 0 0 0 0 0 0 0 0 0 0 0 0 0 0 0 0 0 0 0 0 0 0 0 0 0 0 0 0 0 0 0 0
0 0 0 0 0 0 0 0 0 0 0 0 0 0 0 0 0 0 0 0 0 0 0 0 0 0 0 0 0 0 0 0 0 0 0 0 0 0 0 0 0 0 0 0
0 0 0 0 0 0 0 0 0 0 0 0 0 0 0 0 0 0 0 0 0 0 0 0 0 0 0 0 0 0 0 0 0 0 0 0 0 0 0 0 0 0 0 0
0 0 0 0 0 0 0 0 0 0 0 0 0 0 0 0 0 0 0 0 0 0 0 0 0 0 0 0 0 0 0 0 0 0 0 0 0 0 0 0 0 0 0 0
0 0 0 0 0 0 0 0 0 0 0 0 0 0 0 0 0 0 0 0 0 0 0 0 0 0 0 0 0 0 0 0 0 0 0 0 0 0 0 0 0 0 0 0
0 0 0 0 0 0 0 0 0 0 0 0 0 0 0 0 0 0 0 0 0 0 0 0 0 0 0 0 0 0 0 0 0 0 0 0 0 0 0 0 0 0 0 0
0 0 0 0 0 0 0 0 0 0 0 0 0 0 0 0 0 0 0 0 0 0 0 0 0 0 0 0 0 0 0 0 0 0 0 0 0 0 0 0 0 0 0 0
0 0 0 0 0 0 0 0 0 0 0 0 0 0 0 0 0 0 0 0 0 0 0 0 0 0 0 0 0 0 0 0 0 0 0 0 0 0 0 0 0 0 0 0
0 0 0 0 0 0 0 0 0 0 0 0 0 0 0 0 0 0 0 0 0 0 0 0 0 0 0 0 0 0 0 0 0 0 0 0 0 0 0 0 0 0 0 0
0 0 0 0 0 0 0 0 0 0 0 0 0 0 0 0 0 0 0 0 0 0 0 0 0 0 0 0 0 0 0 0 0 0 0 0 0 0 0 0 0 0 0 0
0 0 0 0 0 0 0 0 0 0 0 0 0 0 0 0 0 0 0 0 0 0 0 0 0 0 0 0 0 0 0 0 0 0 0 0 0 0 0 0 0 0 0 0
0 0 0 0 0 0 0 0 0 0 0 0 0 0 0 0 0 0 0 0 0 0 0 0 0 0 0 0 0 0 0 0 0 0 0 0 0 0 0 0 0 0 0 0
0 0 0 0 0 0 0 0 0 0 0 0 0 0 0 0 0 0 0 0 0 0 0 0 0 0 0 0 0 0 0 0 0 0 0 0 0 0 0 0 0 0 0 0
Wind_Speed
3 3 4 6 7 7 8 8 7 7 7 5 4 3 2 2 2 1 1 1 1 1 1 1 1 0 1 1 1 2 3 3 4 4 5 5 5 4 4 4 4 3 3 2
2 2 3 5 7 8 9 8 8 8 7 4 4 3 3 3 2 2 1 2 1 1 1 1 0 0 1 1 1 1 2 2 3 4 4 4 4 4 4 4 3 3 3 3
2 2 3 5 6 7 6 6 8 9 7 3 4 4 4 3 2 2 2 2 2 1 1 1 1 0 1 1 1 1 2 2 2 3 4 4 4 4 4 4 3 3 3 3
1 2 5 0 1 3 5 4 5 5 5 4 4 5 4 2 2 2 3 3 2 2 1 1 1 0 1 1 2 2 2 1 2 3 3 4 4 4 4 3 3 2 2 2
2 3 4 2 1 1 3 4 3 5 5 4 3 2 2 1 2 3 3 3 2 2 1 1 0 0 1 2 1 1 1 1 2 3 3 3 4 4 3 3 2 2 2 2
2 4 4 1 2 3 3 3 1 3 4 3 2 3 2 2 3 3 4 2 2 1 0 0 0 1 1 1 1 1 1 1 2 2 3 3 3 3 3 2 2 2 1 2
3 4 3 3 4 2 3 2 3 4 4 3 4 4 3 3 3 3 3 2 2 1 0 0 0 1 1 1 1 0 0 1 1 2 2 3 3 2 3 2 2 2 1 1
3 4 3 3 2 1 3 5 4 4 3 3 3 3 3 2 3 3 3 2 2 1 1 1 1 1 1 1 0 1 1 1 1 2 2 2 3 2 2 2 2 1 1 0
3 3 3 3 3 4 4 5 4 4 3 3 2 3 3 3 3 2 2 2 2 2 2 1 1 1 1 0 1 2 2 2 2 2 2 2 2 2 2 2 2 1 1 0
3 4 4 5 4 4 5 5 4 3 3 2 2 2 3 2 2 2 2 2 2 2 1 1 1 1 1 1 1 2 2 2 2 2 2 2 1 1 1 1 2 1 1 0
4 5 5 3 4 5 5 4 4 3 3 2 1 2 2 2 2 2 2 2 2 2 2 2 2 2 2 1 2 2 2 2 2 2 2 2 1 1 0 0 0 1 1 1
4 3 4 5 5 5 5 4 3 3 3 2 1 1 2 2 2 2 2 2 2 2 2 2 2 2 1 1 1 2 2 2 2 2 1 1 2 2 3 2 2 2 1 1
5 5 5 5 4 3 3 3 3 3 2 2 2 1 1 1 2 2 2 2 2 2 2 2 2 2 1 1 1 2 2 2 2 1 1 1 1 1 2 2 3 3 3 3
4 3 3 3 3 4 3 2 2 2 2 2 2 1 1 1 1 2 2 2 2 2 2 2 2 2 2 1 1 2 2 2 2 1 1 1 1 1 1 1 1 2 3 3
3 3 3 3 3 3 2 2 2 2 3 3 2 2 1 1 2 2 2 2 2 2 2 2 2 2 2 1 1 1 1 1 1 1 1 1 1 1 1 1 1 1 1 2
3 2 1 1 2 2 2 2 2 2 2 2 2 2 2 2 2 2 2 2 1 2 2 2 2 2 2 1 1 1 1 2 1 1 1 1 1 1 1 1 1 1 1 1
2 2 2 3 3 3 2 2 2 2 2 2 2 2 2 1 2 2 2 2 2 2 2 2 2 2 1 1 1 1 1 2 2 1 1 1 1 1 1 1 1 1 1 2
3 3 3 3 3 3 3 2 2 2 2 2 2 1 1 1 2 2 2 2 2 2 3 2 2 1 1 1 1 1 1 1 1 1 1 1 1 1 1 1 1 1 1 1
2 2 2 2 2 2 2 2 2 1 2 1 1 1 1 1 2 2 2 1 2 2 3 2 2 1 1 1 1 1 1 1 1 1 1 2 1 1 1 1 1 1 1 1
2 2 2 2 2 2 2 1 1 1 1 1 1 1 1 2 2 2 1 2 2 2 2 2 2 1 1 1 1 1 1 1 1 1 1 1 1 1 1 1 1 1 1 1
2 2 2 2 2 2 2 1 1 1 2 1 1 1 2 2 2 2 1 2 2 2 2 2 1 1 1 0 1 1 1 1 1 1 1 1 1 1 1 1 1 1 1 1
2 2 2 2 2 2 2 2 1 1 2 2 1 1 2 2 2 2 2 2 2 3 2 1 1 1 0 1 1 1 1 1 1 1 1 1 1 1 0 1 1 1 1 2
2 2 2 2 2 2 2 2 2 1 1 2 2 2 2 2 2 2 2 2 2 2 2 1 1 1 1 1 1 1 1 1 1 1 1 0 0 0 0 0 1 1 1 2
2 2 2 1 1 1 2 2 2 1 2 2 2 2 2 2 2 2 2 2 3 3 2 1 1 2 2 1 1 1 1 1 0 0 0 0 0 0 0 1 1 1 2 2
2 2 1 1 1 1 2 2 2 2 2 1 2 2 2 2 2 2 2 1 1 2 1 1 2 2 1 1 1 0 0 0 0 0 0 0 0 1 1 1 1 2 2 2
2 2 2 2 2 2 2 1 1 1 1 1 2 2 1 1 1 1 1 1 1 2 1 1 1 1 1 0 0 0 0 0 0 0 0 1 1 1 1 1 2 2 2 2
1 1 1 1 1 2 2 2 2 2 2 2 2 2 2 1 1 1 1 1 1 1 1 1 1 1 0 0 0 0 0 0 1 1 1 1 1 1 2 2 2 2 2 2
Wind_Direction
288 280 222 235 231 224 226 235 241 249 252 259 262 283 301 319 337 337 341 351 356 351 11 38 77 124 139 136 141 153 163 170 178 178 174 171 170 172 173 177 179 182 188 196
271 260 228 248 240 229 235 240 245 258 263 282 292 294 285 288 300 291 305 323 329 325 325 331 3 188 164 149 140 150 161 168 168 170 170 170 170 169 172 175 176 180 189 197
250 266 232 245 234 223 225 234 236 247 263 276 272 276 277 273 273 279 296 310 305 289 279 288 289 255 203 166 150 150 148 152 164 168 172 172 170 172 177 177 177 186 193 200
223 196 227 285 326 247 230 245 258 264 281 273 282 292 284 264 260 285 294 295 294 298 308 307 308 304 159 152 150 153 152 157 169 168 170 174 175 178 182 181 182 189 199 207
215 229 250 274 322 285 238 261 264 266 283 305 323 296 254 335 307 292 294 297 291 285 294 281 284 46 140 146 148 157 166 176 175 175 172 178 183 181 180 179 183 193 204 210
219 238 246 331 355 317 244 248 330 283 279 287 274 262 275 340 321 321 324 325 324 321 356 141 100 119 144 150 155 172 187 189 176 180 181 185 185 176 172 176 184 187 201 215
237 251 266 354 328 279 221 311 340 303 286 267 268 292 319 317 321 332 335 339 347 358 26 53 112 142 148 151 167 162 136 143 152 169 178 176 170 164 159 160 168 179 192 216
227 235 254 10 341 278 327 329 315 312 310 301 305 326 327 335 344 350 357 4 7 13 27 41 103 140 144 146 132 115 123 128 135 146 154 164 155 149 152 155 161 168 167 158
242 273 338 323 313 324 322 311 315 319 323 318 312 319 333 340 349 352 358 5 14 38 48 48 66 94 115 90 127 128 125 123 122 121 128 144 145 143 149 154 160 160 158 166
261 272 299 306 311 330 330 323 326 324 316 302 299 311 327 335 344 354 356 4 14 36 42 38 36 38 53 102 135 136 132 122 120 121 119 118 119 131 146 159 162 162 168 212
263 291 308 297 324 332 334 337 346 347 330 308 288 299 315 325 335 345 352 358 9 21 23 21 35 48 54 85 132 132 125 122 123 118 118 112 99 84 95 169 216 194 205 222
272 296 283 290 309 319 321 330 337 339 338 339 327 314 327 330 336 340 350 359 8 18 24 25 35 47 46 68 131 134 132 128 120 115 114 111 106 81 57 49 36 21 9 329
282 298 292 294 304 313 315 322 329 337 343 345 351 347 343 341 344 351 353 0 4 9 16 23 30 34 26 37 115 135 138 133 127 126 127 128 123 114 92 69 67 69 61 36
288 294 290 307 317 326 330 338 350 8 12 11 9 10 12 11 10 8 359 359 9 20 21 20 25 20 14 21 82 116 125 125 130 135 139 143 138 128 120 107 83 58 47 45
308 297 289 304 323 337 346 359 15 15 11 10 9 7 8 17 18 13 10 12 27 36 24 16 17 12 14 26 79 108 115 122 123 123 130 134 130 123 112 103 85 58 37 38
311 315 311 318 329 339 346 346 345 341 349 353 1 6 11 22 24 23 22 25 33 24 10 3 358 354 6 26 70 98 106 105 106 122 130 127 123 119 106 93 78 62 31 16
298 303 308 306 310 317 315 309 309 312 331 347 351 357 9 27 30 19 12 13 12 5 353 349 345 353 6 20 67 102 107 114 108 110 114 116 119 114 104 98 82 46 17 6
278 279 278 280 284 291 302 313 323 329 330 332 341 352 10 11 2 355 355 5 11 9 359 350 350 3 22 44 76 100 112 119 114 108 106 101 92 81 82 79 73 51 27 14
307 305 306 304 300 292 294 304 320 329 330 331 334 344 355 347 335 334 341 360 359 348 347 357 4 15 38 50 63 115 121 116 105 102 103 102 83 74 67 61 48 31 19 6
330 332 333 335 335 319 305 319 327 329 325 318 325 343 347 337 328 329 344 343 328 322 324 334 346 4 32 59 43 103 115 116 114 111 102 98 90 77 63 53 41 25 11 356
327 336 341 343 341 340 330 320 315 317 325 325 317 312 317 320 317 312 314 329 333 333 324 329 342 346 6 38 39 88 102 109 109 108 101 96 94 85 66 45 26 4 350 341
313 322 331 335 337 336 334 330 316 307 316 321 323 314 310 311 313 314 305 289 303 323 325 322 324 348 30 25 55 83 94 99 94 99 103 102 100 88 46 8 350 340 331 324
295 303 310 313 318 325 330 324 315 303 299 300 296 292 292 296 297 291 306 315 306 319 323 314 330 32 57 42 64 85 95 96 93 104 109 91 77 78 307 308 311 312 311 313
283 286 294 306 316 318 316 317 317 308 297 293 289 285 281 284 294 289 276 295 311 318 318 331 10 31 38 41 69 87 97 104 103 101 102 103 146 241 258 273 289 299 303 307
273 274 277 278 274 278 286 299 305 302 296 295 300 298 286 280 280 292 293 292 315 328 326 344 6 18 27 49 71 83 84 109 138 197 225 255 266 268 269 275 283 290 297 301
265 265 266 263 264 270 271 269 276 289 295 302 315 319 317 309 300 304 315 337 347 347 349 351 352 8 24 40 67 69 72 16 318 299 269 274 269 266 267 275 285 286 290 294
262 264 264 267 272 270 268 265 270 282 284 281 295 311 319 323 328 342 348 352 358 1 356 347 349 358 4 6 353 314 277 270 265 259 257 260 266 272 279 281 284 286 287 287